{"data":{"norad_id":63755,"intl_designator":"2025-089E","name":"STARLINK-11681 [DTC]","alt_names":[],"object_type":"PAYLOAD","status":"ACTIVE","operator":null,"country":"US","launch_date":"2025-04-29","launch_site_code":"AFETR","launch_vehicle":null,"mission":null,"orbit_class":"UNKNOWN","rcs_meters":null,"size_class":null,"mass_kg":null,"dimensions":null,"purposes":["comms"],"wikipedia_slug":null,"has_3d_model":false,"image_url":null,"decayed_at":null,"tle_current":{"epoch":"2026-05-24T13:11:40.862400Z","epoch_age_seconds":117453,"freshness":"FRESH","line1":"1 63755U 25089E   26144.54977850  .00163589  00000+0  12533-2 0  9999","line2":"2 63755  43.0014 195.2261 0001581 264.1698  95.8990 15.70842244 62068","mean_motion":15.70842244,"eccentricity":0.0001581,"inclination_deg":43.0014,"raan_deg":195.2261,"arg_perigee_deg":264.1698,"mean_anomaly_deg":95.899,"bstar":0.0012533,"rev_number":6206,"period_min":91.670567525175,"perigee_km":355.42390348931,"apogee_km":357.55339211914,"semimajor_km":6734.6256478042,"source":"CELESTRAK","updated_at":"2026-05-25T13:38:20.103627Z"}}}